Hauptseite
METAR-TAF:

METAR-TAF

Flughäfen :

Flugplatz Turin-Aeritalia

Turin, Italien

Breite: 45-05-20N, Länge: 007-36-20E, Höhe: 288 m

Beobachtung

Neuester Wetterbericht von vor 3 Stunden und 24 Minuten, um 15:50 UTC
Wind 4 kt aus Süd/Südwest
Temperatur 7°C
Luftfeuchtigkeit 66%
Luftdruck 1017 hPa
Sichtweite 10 km oder mehr
keine Wolken unter 1500 m und keine Kumulonimbus oder Gewitterwolken

METAR: LIMA 181550Z 20004KT CAVOK 07/01 Q1017

Zeit: 20:14 (19:14 UTC)


TAF: fehlend

Wetterbeobachtungen und Prognosen von mehr als 4000 Flughäfen (METAR und TAF Bericht).

Die verfügbaren Stationen werden durch gelbe und rote Markierungen auf der Karte dargestellt.

Führen Sie die Maus auf sie, um den Namen der Station zu sehen.

Darauf klicken, um die Beobachtung von Wetterbeobachtungen und Prognosen zu sehen.

Um die Karte zu ändern : klicken Sie auf den grünen Tasten mit einem schwarzen Kreuz Zum Vergrößern, auf den grünen Button mit einem Gedankenstrich zu verkleinern, oder auf die grünen Pfeile für benachbarte Karten.


METAR-TAF: